This is the latest recevied weather packets stored in our database for station/object HK6LRQ-25. If no packets are shown the sender has not sent any weather packets the latest 10 day(s).
| Time | Temp. | Humidity | Pressure | Rain* | Wind** | Luminosity | Snow |
|---|---|---|---|---|---|---|---|
| 1777786355 | 12.22° C | 93% | 1016 hPa | 0 mm | - | - | - |
| 1777784554 | 12.22° C | 92% | 1017 hPa | 0 mm | - | - | - |
| 1777782753 | 12.22° C | 93% | 1017 hPa | 0 mm | - | - | - |
| 1777780952 | 12.22° C | 92% | 1017 hPa | 0 mm | - | - | - |
| 1777779151 | 12.78° C | 93% | 1017 hPa | 0 mm | - | - | - |
| 1777777350 | 12.78° C | 92% | 1016 hPa | 0 mm | - | - | - |
| 1777775549 | 13.33° C | 93% | 1016 hPa | 0 mm | - | - | - |
| 1777773748 | 13.89° C | 92% | 1016 hPa | 0.76 mm | - | - | - |
| 1777771947 | 13.89° C | 93% | 1016 hPa | 1.02 mm | - | - | - |
| 1777770146 | 13.89° C | 92% | 1015 hPa | 0 mm | - | - | - |
| 1777768345 | 14.44° C | 93% | 1015 hPa | 0.25 mm | - | - | - |
| 1777766544 | 15° C | 94% | 1014 hPa | 0 mm | - | - | - |
| 1777764743 | 15° C | 94% | 1014 hPa | 0.25 mm | - | - | - |
| 1777762941 | 15° C | 91% | 1013 hPa | 1.78 mm | - | - | - |
| 1777761140 | 15° C | 92% | 1013 hPa | 0.76 mm | - | - | - |
| 1777759339 | 15.56° C | 90% | 1012 hPa | 0 mm | - | - | - |
| 1777757538 | 15.56° C | 91% | 1012 hPa | 0 mm | - | - | - |
| 1777755737 | 15.56° C | 90% | 1011 hPa | 0 mm | - | - | - |
| 1777753936 | 16.11° C | 89% | 1011 hPa | 0 mm | - | - | - |
| 1777752135 | 16.11° C | 90% | 1012 hPa | 0 mm | - | - | - |
| 1777750334 | 16.67° C | 88% | 1012 hPa | 0 mm | - | - | - |
| 1777748533 | 16.67° C | 89% | 1012 hPa | 0 mm | - | - | - |
| 1777746732 | 16.67° C | 87% | 1012 hPa | 0 mm | - | - | - |
| 1777744930 | 16.67° C | 86% | 1013 hPa | 0 mm | - | - | - |
| 1777743129 | 17.22° C | 86% | 1013 hPa | 0 mm | - | - | - |
* Rain latest hour (hover to see other rain measurements)
** Current wind speed in m/s (hover to see current wind gust speed)